Volver al catálogo

FENGYUN 1C DEB *

ActivoSSO
NORAD 46989·DEBRIS·🇨🇳 China

Lanzado May 10, 1999 desde Taiyuan Satellite Launch Center

Loading…

Próximos Pases (próximas 24 horas)

TLE

EnvejeciendoSource: Space-Track

Época: Sep 5, 2026, 10:20 UTC

1 46989U 99025EZP 26248.43067619  .00001697  00000-0  13260-2 0  9996
2 46989  99.5257  57.2361 0230427 356.2902  32.4998 13.81967603747236

Sigue FENGYUN 1C DEB * en tiempo real con AllMySat

Download on the App Store